Regional Weather Roundup
Issued by NWS

Home | Current Version | Previous Version | Graphics & Text | Print | Product List | Glossary On
Versions: 1 2 3 4 5 6 7 8 9 10 11 12 13 14 15 16 17 18 19 20 21 22 23 24 25 26 27 28 29 30 31 32 33 34 35 36 37 38 39 40 41 42 43 44 45 46 47 48 49 50
000
ASUS43 KTOP 261159
RWRKS

WEATHER ROUNDUP FOR KANSAS
NATIONAL WEATHER SERVICE GOODLAND KS
600 AM CST WED NOV 26 2014

NOTE:  "FAIR" INDICATES FEW OR NO CLOUDS BELOW 12,000 FEET WITH NO
SIGNIFICANT WEATHER AND/OR OBSTRUCTIONS TO VISIBILITY.

KSZ001>006-013>018-027>032-041>047-261300-
NORTHWEST KANSAS

CITY           SKY/WX    TMP DP  RH WIND       PRES   REMARKS
GOODLAND       CLOUDY    31  28  89 NW22G29   30.13S WCI  18
6HR MIN TEMP:  31; 6HR MAX TEMP:  35; 6HR PCP: TRACE;

HAYS           MOCLDY    39  25  56 NW16      30.06S WCI  30
HILL CITY      MOCLDY    38  28  67 NW12      30.09R WCI  30
6HR MIN TEMP:  38; 6HR MAX TEMP:  46;

RUSSELL        MOCLDY    37  32  82 NW9       30.04R
6HR MIN TEMP:  37; 6HR MAX TEMP:  44;

$$

KSZ061>065-074>080-084>089-261300-
SOUTHWEST KANSAS

CITY           SKY/WX    TMP DP  RH WIND       PRES   REMARKS
DODGE CITY     CLOUDY    39  30  70 NW15G23   30.10R WCI  31
6HR MIN TEMP:  38; 6HR MAX TEMP:  44; 6HR PCP: TRACE;

ELKHART          N/A     31  22  69 NW12        N/A  WCI  22
GARDEN CITY    CLOUDY    35  28  75 NW15G24   30.13R WCI  25
6HR MIN TEMP:  35; 6HR MAX TEMP:  41;

GREAT BEND     CLOUDY    41  28  60 NW14      30.07R
LIBERAL        CLEAR     34  27  75 W13       30.17R WCI  25
$$

KSZ066>073-081>083-090>101-261300-
SOUTHEAST KANSAS

CITY           SKY/WX    TMP DP  RH WIND       PRES   REMARKS
CHANUTE        CLOUDY    38  28  67 NW5       29.99R
6HR MIN TEMP:  38; 6HR MAX TEMP:  42; 6HR PCP: TRACE;

COFFEYVILLE    CLOUDY    40  26  57 SW6       29.98R
6HR MIN TEMP:  38; 6HR MAX TEMP:  41;

HUTCHINSON     CLOUDY    43  27  53 NW12      30.03R
6HR MIN TEMP:  40; 6HR MAX TEMP:  46;

MEDICINE LODGE   N/A     45  34  65 N17G24    30.03R
NEWTON         CLOUDY    39  27  60 NW10      30.02R WCI  32
PARSONS        CLOUDY    40  27  59 W5        29.99R
6HR MIN TEMP:  38; 6HR MAX TEMP:  42;

WICHITA INTL   CLOUDY    44  29  55 NW9       30.01R
6HR MIN TEMP:  40; 6HR MAX TEMP:  45;

WICHITA JABRA  CLOUDY    41  29  62 NW9       30.00R
6HR MIN TEMP:  39; 6HR MAX TEMP:  42;

WICHITA MCCONL CLOUDY    43  28  56 NW10      30.01R
WINFIELD       CLOUDY    40  31  70 NW9       30.02R
6HR MIN TEMP:  37; 6HR MAX TEMP:  41;

$$

KSZ007>012-019>026-033>040-048>060-102>105-261300-
NORTHEAST KANSAS

CITY           SKY/WX    TMP DP  RH WIND       PRES   REMARKS
CONCORDIA      MOCLDY    38  26  62 NW14      30.00R WCI  30
6HR MIN TEMP:  38; 6HR MAX TEMP:  44;

EMPORIA        MOCLDY    36  29  75 W6        29.97R
6HR MIN TEMP:  36; 6HR MAX TEMP:  41; 6HR PCP: TRACE;

LAWRENCE       MOCLDY    36  32  85 W6        29.94S
6HR MIN TEMP:  36; 6HR MAX TEMP:  41; 6HR PCP:  0.02;

MANHATTAN      PTCLDY    40  29  64 W6        29.99R
6HR MIN TEMP:  40; 6HR MAX TEMP:  46; 6HR PCP: TRACE;

OLATHE IND     CLOUDY    37  34  89 SW8       29.94F
6HR MIN TEMP:  35; 6HR MAX TEMP:  39; 6HR PCP:  0.07;

OLATHE EXE     CLOUDY    37  35  92 SW6       29.93F
6HR MIN TEMP:  36; 6HR MAX TEMP:  39; 6HR PCP:  0.05;

SALINA         MOCLDY    41  28  60 NW9       30.02R
6HR MIN TEMP:  41; 6HR MAX TEMP:  46;

TOPEKA BILLARD PTCLDY    40  34  79 W7        29.95R
6HR MIN TEMP:  39; 6HR MAX TEMP:  44; 6HR PCP:  0.02;

TOPEKA FORBES  PTCLDY    41  32  70 W14       29.94R
6HR MIN TEMP:  38; 6HR MAX TEMP:  43; 6HR PCP:  0.01;

$$


USA.gov is the U.S. government's official web portal to all federal, state and local government web resources and services.